GFSSGP_925_spd_159.txt.gz
Wind_Speed
28 18 8 4 4 4 2 1 1 2 2 1 1 2 4 2 2 1 4 7 10 16 15 14 13 14 14 11 9 8 8 9 9 11 13 13 12 13 15 13 12 13 12 12 11 12 12 11 14
24 13 5 3 4 3 1 3 2 1 1 4 3 2 3 2 0 1 7 1 13 15 14 14 13 12 12 10 10 10 8 7 9 10 11 11 12 13 12 14 12 12 11 11 11 12 11 10 12
13 9 4 4 3 3 3 2 2 1 1 3 2 3 2 1 1 6 1 9 15 14 12 11 12 13 12 10 9 8 7 6 6 10 10 10 10 11 13 11 11 11 11 11 11 13 10 9 8
10 7 4 4 3 0 2 1 1 1 2 3 1 4 2 2 1 5 8 14 16 14 13 11 12 12 11 9 7 6 5 6 6 8 10 10 10 11 14 11 11 10 10 11 11 11 8 8 7
7 3 4 4 2 1 2 1 1 2 2 3 3 1 2 1 1 6 14 15 16 16 14 13 13 11 10 8 7 6 6 8 7 7 10 10 10 8 13 12 11 10 10 10 9 11 10 9 7
4 3 4 2 1 2 2 3 1 1 1 1 3 2 1 2 2 7 14 15 14 15 15 14 14 13 12 10 9 8 8 8 10 8 8 9 7 7 11 11 11 10 11 10 9 11 11 10 9
5 3 4 4 2 2 2 5 3 0 2 3 2 2 0 2 2 8 13 12 12 12 14 15 15 14 13 12 11 9 9 8 9 10 9 9 10 8 8 10 11 10 10 9 9 10 12 10 11
4 3 3 0 2 1 3 2 1 3 2 1 1 3 2 2 5 9 11 11 11 13 14 15 15 15 15 14 13 12 11 11 10 10 13 10 12 12 11 9 10 13 10 11 10 10 10 10 10
2 4 2 5 5 2 3 2 3 1 2 3 2 1 1 1 7 10 10 10 12 14 16 17 17 17 16 16 15 14 14 13 13 12 13 13 13 13 13 14 11 13 11 11 10 10 10 11 10
4 3 6 2 3 3 1 3 2 2 3 3 2 1 3 7 9 10 12 13 15 17 19 20 20 19 18 18 18 18 17 17 17 15 15 17 17 17 14 15 13 13 13 12 12 11 11 11 12
1 4 4 2 2 2 1 2 2 2 2 1 2 1 1 4 6 9 13 17 19 19 19 21 22 21 21 21 20 21 21 20 20 20 19 17 19 18 19 16 16 16 16 16 14 14 15 14 13
4 2 3 3 4 2 0 1 1 2 2 2 3 1 1 3 8 12 16 17 19 20 22 22 24 24 24 23 24 24 24 24 24 23 22 21 21 21 23 22 20 20 19 19 18 17 17 16 15
4 3 2 2 1 2 1 4 4 4 7 2 4 5 4 6 9 13 17 20 22 25 26 26 25 28 28 28 28 28 28 28 28 26 26 26 25 24 22 25 25 24 22 21 21 21 20 20 19
3 3 1 2 2 3 3 3 4 3 1 3 3 5 5 7 10 15 17 21 23 26 29 29 29 29 30 32 32 33 32 31 31 30 30 29 29 28 26 25 26 27 26 25 25 25 23 22 22
4 2 1 4 4 5 4 6 5 4 2 1 4 4 6 10 15 18 22 24 24 24 25 28 30 30 31 34 34 36 36 33 33 32 33 33 32 32 31 30 29 28 28 27 27 27 27 27 26
3 4 3 3 4 4 7 8 4 3 4 5 8 7 6 8 17 28 29 28 28 29 29 28 27 28 30 32 35 37 38 38 36 35 33 32 35 34 34 34 34 31 29 30 31 30 30 30 30
1 3 5 4 5 3 5 4 3 5 3 6 7 8 8 11 22 29 28 27 27 27 30 31 29 30 30 31 34 35 37 37 34 35 37 37 34 35 36 36 37 36 32 32 33 33 33 26 30
6 4 1 4 3 4 4 7 11 7 2 8 6 8 11 13 18 25 27 28 27 25 24 25 27 30 30 30 31 34 35 33 34 36 38 40 39 36 36 38 38 38 36 36 35 34 33 34 28
6 3 5 2 4 2 6 6 9 8 4 7 9 10 12 11 17 24 27 26 25 23 22 22 23 25 26 27 26 25 27 27 29 32 36 37 36 37 37 38 40 39 39 39 39 37 31 30 32
4 5 4 4 5 0 7 12 7 8 8 10 10 13 10 5 9 18 22 24 24 22 20 19 19 21 24 25 27 25 21 26 31 29 33 33 38 40 40 40 40 39 38 37 39 35 29 25 24
4 6 5 5 3 3 6 13 6 3 4 5 8 8 5 5 6 7 17 22 23 26 26 19 16 18 20 21 22 25 24 22 19 27 31 35 35 36 37 38 39 38 38 36 38 37 31 27 20
8 6 5 3 2 6 2 6 3 4 6 5 11 5 5 5 5 6 13 19 23 26 26 25 19 14 13 13 18 22 21 20 24 24 27 31 32 33 35 35 37 36 37 36 36 36 37 32 27
5 6 7 5 3 4 9 6 5 5 4 8 7 4 3 4 6 9 14 17 20 25 27 29 28 25 21 12 9 17 22 23 22 24 26 27 29 30 31 32 35 36 36 38 36 33 35 34 31
8 6 4 2 3 7 9 8 4 5 10 5 6 6 6 5 6 9 13 16 22 27 29 31 32 34 30 24 19 13 12 19 19 23 24 26 27 29 31 32 34 35 35 36 38 38 34 35 34
6 8 2 4 5 6 2 8 9 3 6 7 9 6 6 6 6 6 10 15 19 24 27 24 30 33 32 30 28 23 19 16 17 17 21 24 26 28 31 33 34 35 36 37 38 36 38 37 36
13 11 4 7 5 4 2 8 5 11 5 4 3 8 7 6 5 6 9 12 14 18 23 25 26 28 31 30 28 27 26 23 20 20 20 18 18 23 28 30 33 34 34 37 37 37 37 36 38
5 14 7 4 3 2 5 6 7 8 10 7 6 7 7 6 5 5 8 12 14 18 20 23 22 24 29 27 26 26 27 25 25 24 22 22 18 17 18 23 29 33 36 37 37 36 36 37 39
7 8 4 3 6 7 5 6 8 2 4 6 7 8 6 5 5 5 9 13 15 17 18 19 22 20 22 24 24 22 24 23 23 25 28 26 26 25 23 21 19 24 33 35 35 35 35 35 37
6 8 4 5 5 5 2 6 7 14 9 12 9 7 7 5 4 4 8 12 15 17 20 20 24 24 28 29 25 24 25 23 26 27 27 28 28 29 28 27 24 23 25 26 33 35 35 34 37
16 10 10 7 4 4 3 10 2 6 8 11 9 9 6 6 5 5 8 10 11 15 17 20 19 23 23 24 23 22 22 24 28 29 30 30 32 31 30 31 29 26 25 25 26 30 32 34 35

GFSSGP_925_spd_162.txt.gz
Wind_Speed
24 12 4 1 2 2 5 5 2 3 3 3 3 2 7 6 5 3 2 6 7 10 10 10 12 12 12 9 8 7 7 5 7 7 9 9 10 9 10 10 10 10 11 11 11 11 10 12 11
19 9 2 1 1 5 6 3 5 6 6 3 3 2 2 5 2 4 8 3 12 12 11 9 9 10 10 8 7 7 6 6 6 7 8 6 8 10 9 8 9 9 9 9 10 10 10 9 9
10 6 1 2 1 6 7 4 6 5 2 1 3 4 2 3 2 5 3 10 13 12 11 12 12 11 10 8 8 6 4 3 5 7 6 7 7 8 10 8 7 7 8 8 10 8 8 8 8
6 0 3 3 11 5 6 5 3 3 3 3 2 4 3 3 1 1 5 12 13 12 10 11 13 13 12 10 7 7 5 4 2 5 6 6 7 7 7 9 8 8 7 8 9 7 5 6 6
5 0 3 6 8 5 4 3 1 4 3 5 5 4 4 2 3 3 9 11 11 11 10 11 12 12 11 10 8 7 6 5 4 3 8 7 6 6 9 7 7 7 7 8 8 8 6 7 5
1 2 4 6 7 5 3 3 1 4 3 4 2 2 4 2 1 4 8 9 9 9 9 9 12 12 11 10 8 8 7 8 8 5 6 8 6 3 8 8 7 6 6 7 7 11 9 7 5
3 3 3 8 8 5 3 2 2 4 3 6 3 2 3 3 1 5 7 7 7 7 9 9 10 12 12 11 10 9 9 8 9 10 10 8 7 6 7 8 8 8 7 7 8 9 10 8 7
2 1 6 2 8 4 2 2 2 2 4 1 2 3 4 3 3 6 7 7 7 7 9 9 10 11 12 11 12 11 10 10 10 12 14 14 10 11 10 9 10 12 11 10 11 9 10 9 9
1 2 5 5 7 5 3 3 2 1 2 2 3 3 3 2 4 6 7 7 8 9 11 11 12 12 12 12 11 13 13 12 12 12 13 15 11 13 13 12 12 13 13 12 12 11 11 11 11
1 3 3 2 4 6 4 2 3 3 5 3 3 3 4 5 4 5 7 7 10 11 12 13 13 14 13 13 13 13 13 13 13 13 12 13 12 13 14 15 16 13 13 12 13 13 12 12 10
2 3 6 5 4 3 3 3 1 2 3 2 4 4 3 2 3 6 7 9 10 10 12 13 16 16 15 14 13 13 14 14 14 15 14 13 13 14 16 15 15 15 14 13 13 12 12 12 11
5 4 5 6 4 3 3 2 2 3 2 2 2 3 3 1 3 7 9 10 10 12 14 15 16 17 20 17 16 15 15 14 15 16 17 16 15 15 15 15 15 16 15 15 15 14 15 14 14
6 5 4 4 4 3 3 5 3 6 5 1 3 4 3 3 5 8 11 13 14 15 15 16 16 19 18 22 19 18 18 17 18 18 18 19 18 18 16 16 17 17 17 17 17 17 17 16 16
4 4 2 1 4 3 5 4 5 5 3 3 3 4 3 4 5 10 11 13 14 16 18 15 16 18 18 20 20 21 20 21 20 20 21 22 22 19 18 18 18 19 19 19 19 18 18 18 17
5 7 1 5 5 5 4 11 11 10 5 7 4 4 4 9 12 14 16 16 17 19 20 20 17 15 18 20 22 22 22 20 21 22 22 23 23 23 21 20 19 19 19 19 19 19 20 21 20
5 3 7 7 8 4 6 12 2 7 8 8 7 7 8 12 16 17 15 17 18 17 17 18 18 19 18 19 20 20 21 21 21 21 20 23 24 25 23 23 23 21 20 19 20 20 21 22 22
6 4 11 3 7 4 12 7 5 6 5 8 11 12 12 14 18 15 16 14 15 15 15 17 16 19 18 19 18 19 18 20 23 23 25 24 25 24 24 24 24 22 22 22 21 21 22 22 22
10 7 6 7 7 7 9 15 8 10 11 14 14 13 15 15 16 15 14 12 12 12 13 15 15 16 15 15 16 16 18 20 22 24 27 25 26 24 24 25 25 23 23 23 23 24 23 24 23
7 8 7 5 5 5 13 14 15 13 13 15 16 16 16 15 13 8 8 10 11 10 12 12 14 14 12 13 14 15 18 17 19 23 27 26 28 29 25 25 24 24 26 25 24 24 24 24 21
7 7 6 2 4 4 9 14 15 19 15 18 18 17 14 8 5 4 8 11 12 13 14 14 13 13 11 12 13 14 13 14 17 16 18 22 27 30 29 26 24 23 25 25 26 25 24 24 22
14 14 11 8 3 6 10 14 9 8 8 12 14 12 6 2 1 4 8 11 12 15 16 15 15 14 10 11 12 12 12 13 13 14 16 18 21 25 28 29 28 25 27 28 28 27 26 24 21
16 10 7 5 3 4 4 7 8 8 12 8 8 10 5 6 5 5 7 10 13 14 14 16 16 16 14 10 6 8 10 11 11 12 13 14 15 18 21 26 28 28 26 28 29 29 30 29 24
6 11 11 8 8 9 12 4 5 4 14 16 14 5 7 7 7 6 7 7 10 12 14 15 17 19 19 17 13 4 5 7 8 10 11 13 14 15 16 20 24 26 27 30 32 31 31 32 30
10 8 4 2 2 8 14 11 9 12 12 12 11 7 10 8 7 7 7 7 9 11 13 15 17 20 20 19 18 15 12 10 8 9 10 11 11 11 14 17 20 24 27 29 31 33 33 32 33
14 14 4 6 6 8 0 13 18 7 13 13 10 11 10 8 6 5 6 8 10 14 15 15 17 19 18 18 18 17 15 13 11 12 12 12 12 13 13 17 18 21 25 29 30 31 33 33 33
18 14 6 7 7 5 3 11 6 12 13 3 3 13 11 9 7 6 7 8 9 12 14 14 16 17 18 17 16 16 16 13 13 12 11 10 11 13 16 16 17 19 23 25 29 32 33 32 34
8 13 13 1 2 3 7 8 10 10 12 11 11 13 11 9 7 6 6 6 8 9 10 12 13 13 16 15 15 15 15 15 15 14 13 12 12 14 16 16 17 20 20 20 28 29 30 30 33
10 10 5 6 8 9 11 15 13 10 16 17 12 13 11 9 8 6 5 5 5 7 8 9 12 12 14 14 14 13 14 14 14 14 16 16 16 16 18 18 18 19 19 20 22 21 27 29 31
8 12 7 5 9 9 8 9 10 18 16 16 15 17 15 12 9 7 6 4 4 5 8 8 12 12 13 14 13 13 13 14 15 14 15 16 16 17 17 18 18 18 21 21 19 23 22 25 29
19 17 19 9 9 11 12 15 7 7 11 12 14 16 14 12 10 8 6 4 2 4 7 8 11 12 13 14 14 14 15 16 16 16 17 17 18 17 17 18 17 19 19 21 21 23 27 19 23

GFSSGP_925_spd_165.txt.gz
Wind_Speed
22 13 6 5 5 2 6 5 3 5 7 7 6 10 10 10 8 4 4 5 10 13 12 12 11 9 9 9 8 8 8 4 5 5 5 6 6 6 8 8 7 7 6 6 6 6 9 8 9
19 11 4 3 4 8 7 6 9 9 8 4 3 2 7 11 10 7 9 6 11 11 10 10 11 11 9 8 8 8 7 5 6 6 5 4 5 6 5 6 6 6 5 5 5 3 6 6 6
14 6 4 3 4 7 7 8 9 7 4 2 4 7 4 6 7 5 5 11 12 10 9 10 10 12 10 8 7 7 6 6 6 5 3 3 3 2 5 3 3 3 4 4 5 3 3 4 3
8 5 4 7 8 7 12 9 7 8 5 4 1 8 7 6 3 5 6 10 10 9 8 8 11 11 10 8 7 5 5 4 5 6 4 5 3 4 4 3 3 2 2 2 4 1 1 2 1
3 4 2 5 6 7 8 7 3 6 5 7 3 8 6 6 5 5 9 9 8 7 6 7 10 10 9 8 6 6 4 5 4 5 8 6 3 4 5 4 3 3 2 3 4 4 4 3 2
3 3 4 7 8 7 7 4 2 6 5 5 7 10 7 5 4 5 7 8 6 6 6 7 9 10 9 8 6 6 5 5 5 4 6 10 7 2 8 5 5 4 4 5 5 6 6 3 3
5 5 2 6 9 7 6 2 2 4 5 8 1 7 6 8 5 6 7 6 6 5 5 6 7 9 10 9 9 8 7 7 7 7 7 10 8 6 5 8 6 7 5 5 6 8 8 5 5
4 4 5 3 9 5 4 4 2 3 6 3 3 3 7 7 5 6 5 5 4 4 5 6 7 8 10 10 11 10 9 8 8 8 9 10 9 9 9 10 10 10 10 10 9 10 9 9 8
3 4 6 5 5 7 6 5 2 1 4 4 3 8 6 7 6 6 5 4 4 5 6 7 8 9 10 10 10 11 12 10 10 11 12 13 11 11 12 12 11 11 11 11 11 11 11 11 11
3 5 4 3 3 7 6 3 5 5 7 7 9 9 7 7 6 5 5 4 6 7 8 9 9 9 10 10 9 9 10 10 11 11 11 12 11 10 11 13 14 15 14 13 11 12 12 13 10
2 6 4 4 2 4 6 7 3 4 6 5 8 8 7 5 5 3 3 4 5 5 8 10 11 11 11 11 11 11 12 13 13 14 14 13 12 12 12 12 12 16 15 13 14 13 12 12 11
6 2 5 5 4 3 6 2 6 5 2 5 4 3 1 3 3 3 4 5 6 7 8 10 12 13 13 13 13 13 15 15 14 14 15 15 14 13 13 14 14 14 14 13 15 14 15 14 14
9 8 4 4 4 5 1 7 8 8 7 4 3 3 6 5 5 7 7 8 8 10 9 9 11 14 15 15 15 16 16 17 16 15 15 17 16 16 15 15 15 15 15 16 16 16 16 16 16
4 6 8 7 8 5 7 11 3 10 10 11 8 8 6 7 9 9 10 11 12 13 13 11 10 12 14 17 16 16 17 17 18 18 18 18 19 18 17 16 17 17 18 17 17 17 17 18 18
4 9 9 10 10 9 6 16 17 15 8 10 11 10 9 12 11 12 13 14 14 16 16 15 14 14 14 17 18 18 18 18 19 19 20 20 21 20 19 18 18 18 18 19 19 18 18 19 19
8 9 13 10 13 6 7 18 9 13 14 15 15 10 10 12 14 15 15 14 13 14 15 15 15 14 15 16 17 16 17 18 21 22 20 20 22 22 20 21 21 19 19 19 20 20 20 20 20
9 8 15 10 9 12 12 12 13 6 9 12 12 13 13 13 15 16 13 10 12 13 14 15 14 14 14 16 17 17 17 17 19 19 20 21 22 23 23 23 22 21 22 22 21 20 21 20 21
12 15 11 16 7 14 14 19 8 7 9 11 13 14 15 15 15 12 6 7 8 8 9 12 13 13 13 13 14 16 17 18 19 19 21 21 22 22 22 23 22 21 21 22 21 22 21 22 21
6 13 12 11 6 8 15 18 16 14 16 18 16 17 17 17 15 2 2 4 5 6 8 9 11 11 11 11 13 14 16 16 17 17 18 20 22 24 26 26 22 21 23 23 22 22 23 23 22
11 11 12 3 6 9 13 18 18 18 19 19 20 19 18 15 9 3 2 2 5 7 9 10 10 10 9 10 11 13 12 12 13 13 13 16 18 22 24 24 25 25 22 23 25 22 22 22 22
17 15 12 8 7 12 14 21 24 22 23 20 20 18 14 8 6 4 2 4 7 9 11 12 12 12 10 10 10 11 11 11 11 11 11 11 13 16 20 22 22 24 26 23 25 26 23 21 21
17 16 14 13 7 7 5 7 6 8 10 11 12 13 12 10 7 6 5 6 8 10 11 12 13 14 13 14 6 6 9 9 9 9 8 9 11 12 14 16 18 19 21 24 28 28 27 25 21
12 4 11 11 12 11 14 7 5 10 15 18 16 12 9 9 9 8 8 7 7 9 10 11 12 14 15 16 14 10 10 9 10 9 9 8 9 9 11 12 16 18 20 23 25 26 24 25 26
9 7 5 5 7 9 15 12 9 12 13 3 7 12 9 10 10 8 8 7 7 7 8 10 11 13 15 16 16 15 13 10 11 11 11 11 10 9 9 9 13 13 18 23 24 26 28 28 29
11 9 4 5 6 8 0 12 15 6 4 9 6 9 12 11 10 9 7 6 5 6 8 8 11 13 15 15 15 16 14 13 12 13 12 13 13 14 15 15 15 15 15 16 19 24 26 28 29
20 15 6 6 6 5 7 10 4 5 13 10 9 11 11 11 9 8 8 6 5 5 7 8 10 11 13 14 14 14 14 13 12 13 13 12 12 13 15 15 15 14 15 17 16 14 21 25 28
11 17 15 5 3 4 8 10 13 10 11 12 8 11 13 12 10 9 9 6 5 5 6 8 9 10 12 12 12 12 13 13 12 12 12 12 12 14 16 17 17 16 15 14 15 17 18 18 21
10 8 8 4 6 9 12 16 13 7 14 15 13 13 13 13 11 9 8 6 5 4 4 6 8 9 10 11 11 11 11 12 12 11 13 13 14 15 16 17 17 17 17 17 17 17 17 19 19
11 9 9 7 8 9 12 12 10 15 16 17 17 15 14 14 12 11 10 8 5 4 3 4 6 7 8 9 10 10 11 12 11 12 13 14 14 15 15 16 16 16 17 18 18 19 17 21 22
17 16 18 8 13 11 16 20 4 2 8 11 14 15 17 14 12 11 12 10 7 4 3 2 4 5 7 8 8 9 10 12 12 13 14 14 15 14 15 15 15 16 16 17 17 18 20 21 23

GFSSGP_925_spd_168.txt.gz
Wind_Speed
25 15 10 5 2 4 6 2 7 5 8 8 6 9 12 13 6 4 8 8 14 15 11 13 12 11 9 9 9 11 9 9 9 8 8 7 8 9 9 9 8 7 7 7 8 10 10 9 10
24 15 4 4 3 6 4 8 9 9 8 3 6 3 12 12 8 9 10 10 14 12 11 10 12 10 9 9 9 9 7 9 11 10 9 4 10 7 7 7 5 5 6 6 6 8 8 9 6
20 7 2 3 4 3 6 11 8 8 2 2 5 9 7 5 9 6 12 13 13 12 13 8 10 11 8 8 8 8 6 7 10 8 5 5 8 7 5 5 5 4 4 4 5 5 6 6 6
9 4 3 2 10 9 11 9 9 8 7 4 5 8 6 10 5 8 12 12 12 11 8 6 9 10 8 6 5 5 4 4 4 5 5 6 6 7 6 5 4 3 3 4 2 2 3 3 5
9 4 2 5 9 9 9 6 4 8 6 4 8 7 7 8 10 13 12 11 12 9 6 5 9 9 8 6 4 3 2 2 3 3 4 5 4 4 7 7 5 4 2 2 2 3 4 2 1
4 1 3 4 8 8 6 3 1 8 9 3 12 9 5 7 12 12 11 10 10 10 4 4 6 9 8 6 4 4 3 2 2 2 4 6 4 2 5 5 6 6 5 4 4 4 5 2 1
4 4 5 9 8 6 7 4 2 7 10 5 3 7 7 12 10 11 9 10 8 6 5 3 2 7 8 7 6 5 5 4 5 5 4 7 6 4 3 5 4 6 5 6 7 6 7 6 5
4 2 3 3 8 5 4 3 3 8 6 4 5 4 6 10 11 11 9 8 7 6 6 6 4 4 4 5 6 8 8 7 7 7 7 8 9 8 7 8 8 8 8 7 8 8 8 9 8
4 2 3 1 3 8 6 5 2 2 6 7 6 8 11 14 12 11 9 7 6 6 6 6 7 7 7 8 8 9 10 10 10 10 10 10 11 9 9 11 11 11 10 10 10 10 10 10 11
2 2 4 7 8 8 6 2 7 4 7 8 8 9 13 12 11 12 11 13 9 8 8 8 8 9 9 9 10 9 9 9 11 11 11 12 12 10 13 12 12 14 12 12 12 11 12 12 12
2 2 5 4 7 6 6 4 1 5 5 11 12 9 10 10 7 5 5 2 3 6 10 10 10 11 11 12 11 11 11 11 10 12 11 13 11 13 15 13 14 15 16 17 15 13 14 14 13
3 2 4 6 3 2 4 4 3 4 4 8 9 9 10 8 11 11 4 2 1 4 5 7 10 11 14 14 12 13 13 13 14 13 15 17 17 17 16 17 18 16 14 14 14 16 14 15 14
5 4 4 6 4 3 6 1 5 4 5 5 9 4 4 3 3 1 1 2 4 5 4 5 10 13 15 16 17 15 16 16 16 16 15 17 19 19 19 19 17 18 16 16 16 16 18 16 17
6 8 6 3 4 1 1 5 5 6 9 8 7 8 7 4 3 5 5 8 6 4 6 8 8 7 12 17 20 17 19 18 17 18 18 18 20 20 20 20 20 21 21 20 21 21 21 21 21
4 5 0 3 6 4 2 6 10 8 6 4 7 6 7 7 4 8 10 10 8 4 8 11 12 13 13 14 18 18 17 17 19 19 18 20 20 22 21 21 21 22 22 22 22 22 23 23 22
2 5 6 8 9 3 7 5 10 14 10 10 9 8 8 7 12 12 14 14 2 5 10 12 11 11 13 15 16 18 19 20 22 25 23 18 21 23 22 23 23 22 21 21 23 24 24 24 25
4 3 9 8 14 7 8 5 10 6 2 6 6 8 7 7 9 8 14 6 6 5 9 12 12 11 11 12 14 17 19 20 20 21 21 19 21 21 24 24 22 22 22 22 22 23 23 24 24
7 9 7 9 6 3 8 9 12 1 4 7 8 8 7 7 7 10 10 8 3 4 7 9 9 10 10 11 13 15 16 17 19 19 19 19 16 17 21 24 24 21 21 23 23 24 23 24 25
2 4 10 8 5 4 9 12 10 9 9 9 8 8 8 8 11 10 12 7 5 4 5 7 8 9 9 9 11 12 14 15 17 17 19 20 17 20 23 23 24 22 21 22 25 24 23 26 27
8 6 8 2 4 1 8 13 11 9 9 9 11 11 9 8 9 14 14 10 7 5 5 7 8 9 8 8 9 10 10 7 7 4 6 12 14 12 15 20 22 22 24 25 22 24 24 23 22
10 8 7 6 3 4 8 12 16 13 16 11 12 12 9 9 5 8 14 13 7 6 7 8 10 10 12 10 8 6 6 8 9 9 10 8 9 10 13 14 17 18 19 22 24 23 23 19 17
12 8 8 7 4 3 9 6 9 6 14 14 15 11 10 9 6 9 15 13 8 7 7 9 11 13 15 12 11 13 12 10 11 12 10 6 8 8 12 12 13 12 14 17 19 20 22 23 19
5 5 9 9 5 6 10 8 4 7 6 9 10 9 9 9 10 9 14 12 9 8 8 11 11 13 16 16 16 16 16 13 11 11 10 10 11 10 10 9 10 7 14 19 18 18 19 21 23
5 4 3 3 3 8 9 8 5 8 9 6 4 9 9 11 10 13 14 12 10 8 9 11 11 14 14 15 14 17 16 16 13 12 13 12 10 10 11 12 11 12 12 15 13 17 20 22 24
10 9 3 3 4 6 5 11 13 14 5 4 7 7 10 11 11 10 9 11 10 9 9 9 10 12 12 14 15 14 13 13 14 14 14 14 15 16 17 16 15 15 15 14 14 15 14 17 19
13 10 4 6 4 3 8 7 5 2 5 6 4 9 9 9 8 9 12 13 11 10 7 8 8 8 9 11 12 12 12 12 12 12 12 12 13 14 15 15 15 15 15 15 15 14 14 14 15
6 11 6 4 3 2 5 5 8 5 6 2 6 8 9 8 8 8 12 13 12 10 7 8 7 6 7 8 8 9 8 10 10 9 9 11 11 13 15 15 16 15 16 16 17 17 17 15 15
7 5 6 6 4 5 6 6 8 4 9 9 8 9 10 9 9 8 12 13 11 10 8 7 6 6 6 6 8 8 7 9 9 8 10 12 12 13 14 15 16 16 16 18 18 18 17 18 19
10 5 5 5 5 4 2 5 7 3 3 13 10 11 10 10 9 8 12 14 11 9 9 7 6 5 5 5 7 6 7 8 8 9 10 11 11 13 14 15 15 16 17 20 17 19 20 21 21
16 13 11 5 6 4 7 14 5 1 3 3 8 11 11 13 12 9 16 17 13 11 9 7 6 4 4 4 6 5 6 7 8 9 10 10 11 11 12 13 14 16 18 15 19 21 22 22 22

GFSSGP_925_spd_171.txt.gz
Wind_Speed
25 20 11 3 4 5 2 5 4 3 4 2 6 15 9 3 4 6 12 14 15 16 16 14 12 10 11 11 13 12 10 10 11 11 11 11 12 12 12 10 10 9 9 11 11 12 11 11 12
26 19 3 2 5 4 1 4 9 4 5 7 10 6 7 4 5 7 9 17 13 12 14 14 12 10 10 10 10 10 10 10 10 11 8 11 12 11 11 11 9 8 9 10 10 11 10 10 8
26 11 3 3 3 5 4 3 7 4 4 4 5 5 4 3 5 4 16 17 12 13 12 12 12 11 9 10 10 8 10 10 9 8 6 9 10 11 10 9 9 8 8 8 8 7 6 7 6
12 6 4 5 6 6 8 7 7 5 4 7 8 7 5 8 3 11 17 15 14 14 10 8 11 11 9 8 8 7 7 8 7 6 6 5 6 8 7 8 8 8 7 8 5 4 2 3 4
6 3 4 5 6 3 5 7 7 5 4 6 4 3 5 7 16 18 16 15 13 14 8 7 10 11 9 8 6 6 5 5 6 6 5 6 5 5 3 6 5 5 4 4 1 1 1 4 2
4 3 4 4 5 3 3 4 5 6 8 3 8 6 3 14 17 15 15 14 11 9 6 6 8 9 8 7 5 5 4 5 4 4 6 6 6 5 4 5 7 6 5 3 3 4 2 3 3
3 3 3 6 7 4 3 3 4 6 4 5 8 5 5 10 15 15 14 13 10 9 8 6 4 8 8 7 6 6 5 4 5 5 5 8 8 7 6 6 5 5 3 5 6 5 4 5 5
3 3 2 2 7 4 4 3 4 6 2 3 4 5 5 9 14 12 17 13 11 9 9 8 7 5 4 6 6 6 6 6 6 6 6 7 9 8 8 8 9 7 6 5 5 5 6 7 8
4 4 2 2 6 6 4 4 3 3 7 5 4 4 13 19 16 13 13 12 12 10 11 10 9 8 7 6 7 6 8 8 8 9 9 9 10 10 10 10 11 11 10 9 9 9 8 8 10
4 3 1 3 4 6 7 5 7 5 5 5 6 10 18 18 17 15 13 14 14 13 12 11 11 10 10 9 8 9 9 8 8 11 11 12 12 11 12 13 11 13 13 13 13 12 11 11 11
4 1 0 4 6 5 7 4 3 8 3 8 10 10 13 14 16 16 16 17 16 15 13 13 13 11 12 11 12 10 10 10 9 9 9 9 11 11 13 13 15 17 15 16 16 16 16 15 14
3 6 4 1 5 4 5 6 2 3 3 9 13 16 13 8 12 13 11 7 11 12 13 13 11 11 14 14 13 11 12 12 12 12 12 14 16 14 15 17 17 18 18 17 16 17 17 16 13
2 2 4 4 7 4 3 4 4 5 7 11 11 10 10 11 14 11 9 5 4 7 6 10 14 13 14 15 16 17 15 16 15 15 14 15 17 19 19 20 19 19 19 19 18 17 18 19 19
1 3 2 4 4 3 3 3 2 6 6 8 11 9 6 6 9 6 5 4 6 7 5 2 1 5 17 19 18 18 17 19 17 16 16 17 18 20 21 20 21 21 20 20 20 19 20 20 21
2 3 2 1 2 2 4 5 8 6 3 7 8 9 8 10 10 7 6 7 9 7 4 3 7 10 11 12 19 19 18 17 20 19 18 17 18 20 21 22 22 22 20 21 22 22 22 22 22
3 4 1 4 6 3 6 6 8 9 7 9 9 8 8 7 14 11 11 9 10 7 4 3 6 8 9 11 14 15 18 19 19 19 21 21 17 20 22 22 23 21 22 23 23 24 25 25 24
3 2 5 5 8 5 6 4 6 7 8 10 9 8 7 6 10 15 9 13 9 4 3 5 9 11 11 12 11 13 15 18 18 19 21 21 19 19 19 21 23 22 21 22 23 24 24 25 25
7 4 3 5 4 7 5 6 8 7 5 6 6 7 6 6 7 6 15 12 7 3 2 5 8 9 11 12 12 12 14 15 13 17 17 14 16 15 18 21 22 20 21 21 21 24 24 23 24
6 4 4 5 5 3 5 6 10 9 5 9 9 8 7 7 3 16 13 12 9 4 1 2 5 6 7 6 6 5 6 9 11 14 16 16 14 14 10 18 20 19 20 21 20 20 23 26 24
5 3 4 5 2 2 4 9 11 7 8 10 10 10 10 5 3 11 13 12 9 8 6 4 4 5 5 5 5 5 4 3 4 6 2 7 9 10 7 10 13 16 17 19 21 21 21 20 22
6 6 4 5 2 2 4 8 9 9 15 10 11 10 9 11 8 8 13 12 9 9 8 5 4 5 7 6 4 3 4 4 10 14 11 8 2 3 6 10 12 12 12 15 17 18 18 16 16
10 6 4 3 4 2 3 6 6 7 9 10 18 13 11 9 8 9 15 13 11 11 8 4 5 6 9 8 12 14 14 12 11 11 13 13 10 9 8 7 5 6 9 13 17 18 18 17 16
3 5 7 4 2 2 2 4 6 3 5 8 12 10 9 9 14 12 15 17 13 11 9 6 6 8 10 11 11 13 14 12 9 9 9 10 8 8 8 8 8 9 9 9 10 11 13 20 19
8 5 3 3 2 7 8 8 4 6 9 5 4 7 8 9 12 13 20 19 15 11 9 7 7 10 10 11 12 13 13 12 11 10 10 10 9 10 11 11 10 10 10 11 11 10 9 11 12
7 8 1 1 4 6 4 9 13 6 7 4 9 7 8 12 13 13 12 17 15 12 10 8 8 10 10 11 12 11 11 11 12 11 10 10 10 11 12 12 12 12 12 12 11 10 9 11 10
13 11 5 7 5 3 4 8 6 8 9 8 7 9 10 9 9 10 14 19 17 14 12 11 9 9 8 10 10 9 9 10 10 8 8 8 8 9 9 10 10 11 11 12 11 11 12 12 12
6 9 5 2 3 2 4 6 8 8 5 4 7 9 10 11 10 10 15 19 17 14 12 10 10 9 8 9 8 7 7 7 7 6 5 6 6 7 9 9 9 9 10 9 9 11 13 13 14
6 7 4 3 3 4 5 5 7 2 8 6 7 13 12 10 9 11 16 20 17 15 12 10 8 9 8 8 7 7 7 6 5 5 6 6 6 7 8 9 10 11 10 11 11 13 14 15 17
6 4 5 4 5 5 2 6 8 17 6 8 9 9 10 12 13 12 14 21 20 16 14 12 12 11 10 9 8 7 6 5 4 4 5 6 6 7 9 10 11 12 12 14 14 14 15 16 17
18 12 11 6 5 5 1 7 3 9 5 7 8 9 12 13 13 11 18 23 22 20 18 17 15 13 10 9 8 7 6 5 4 5 5 5 6 7 9 10 12 12 14 16 16 16 16 18 18

GFSSGP_925_spd_174.txt.gz
Wind_Speed
27 17 1 4 4 5 2 2 3 2 4 3 3 12 8 4 2 4 4 17 17 19 17 13 12 12 12 13 12 10 11 10 10 11 10 11 11 11 12 12 12 11 12 11 12 11 11 12 12
27 8 3 3 5 4 2 2 5 3 6 8 8 4 7 3 3 7 10 16 15 18 16 15 12 11 11 12 11 10 10 11 11 10 9 10 10 9 10 10 10 12 10 10 11 10 9 8 8
15 4 3 4 4 5 5 4 6 5 10 4 5 5 4 2 3 9 14 17 16 16 14 14 13 11 11 11 10 10 11 11 11 9 10 10 9 9 8 8 8 8 9 9 8 7 6 5 5
7 6 4 4 4 1 7 7 5 6 4 6 5 7 3 2 7 11 21 17 15 16 14 11 13 11 10 10 10 10 10 11 10 8 9 9 10 10 6 9 8 7 9 7 5 4 3 3 3
5 3 4 4 4 3 2 5 8 4 4 4 2 3 3 3 14 21 22 17 14 15 12 9 12 12 10 9 8 8 8 8 9 8 7 7 9 8 5 8 11 9 9 6 2 3 4 4 4
4 3 4 4 3 3 4 5 5 6 4 5 6 5 2 12 18 18 18 15 12 13 9 9 12 12 10 9 7 7 6 6 7 7 8 7 7 7 5 6 7 8 8 7 5 4 4 6 4
4 4 4 5 5 2 4 4 4 7 5 3 9 5 2 6 17 17 16 15 13 10 10 9 9 11 11 9 8 7 6 6 6 6 7 9 9 8 7 6 6 6 6 8 8 7 5 7 8
3 3 5 3 6 4 4 3 6 5 2 3 5 6 5 9 18 16 17 16 14 12 12 11 9 9 9 10 8 7 7 7 7 8 8 8 11 10 10 9 9 7 6 6 5 5 5 7 9
2 4 1 3 6 5 4 5 2 3 6 3 4 5 9 23 18 17 17 16 15 14 12 14 11 10 8 7 7 8 7 7 8 9 9 9 11 12 11 11 11 12 11 9 9 8 8 8 9
4 3 2 2 5 6 6 6 8 5 4 5 5 7 22 21 20 20 17 16 17 16 16 15 13 12 11 10 9 8 9 9 8 9 11 11 11 12 13 12 12 13 13 12 12 12 11 11 12
1 2 4 5 2 4 7 4 3 10 2 7 12 10 13 16 18 19 19 20 21 18 16 16 15 14 13 13 12 11 11 11 10 9 9 9 10 12 14 14 14 16 15 15 14 15 15 15 14
2 3 3 5 6 4 5 4 4 4 6 9 13 17 14 10 15 19 20 20 18 18 18 16 16 15 14 13 16 13 13 13 12 12 12 12 13 14 14 15 15 15 16 18 17 16 16 17 16
2 2 4 3 7 5 3 4 0 5 1 8 11 10 11 12 19 21 17 15 17 17 16 19 19 18 16 15 16 17 17 17 15 14 14 14 15 15 17 16 16 16 16 17 19 18 17 17 17
1 2 4 1 2 3 4 3 3 3 3 9 10 10 9 11 19 15 16 15 13 10 11 10 11 15 20 20 20 19 19 19 20 20 18 17 16 16 17 18 18 18 18 18 19 19 19 19 19
1 1 3 2 2 1 4 5 6 4 2 5 8 9 9 12 17 19 17 13 10 12 12 10 7 6 7 11 20 25 23 20 20 20 21 21 21 17 16 18 19 19 17 18 19 20 20 21 20
3 5 2 3 6 3 6 7 8 2 5 8 9 8 7 8 16 17 14 13 10 16 13 10 9 10 11 11 12 15 19 23 23 21 18 19 20 19 18 18 20 19 19 18 19 20 21 22 22
5 3 3 6 7 3 4 6 8 0 6 8 8 8 8 8 10 14 12 13 18 16 13 10 8 9 12 14 15 14 14 17 20 21 23 20 19 17 17 17 18 18 19 20 19 20 21 24 24
7 6 4 6 1 4 6 8 7 5 1 6 6 8 8 8 10 11 13 16 15 13 10 7 6 8 10 12 14 14 15 14 13 14 17 17 16 16 15 15 17 18 17 18 19 20 19 22 25
5 4 5 3 5 3 8 7 11 8 3 7 8 8 7 9 5 12 15 15 13 10 7 5 5 5 7 7 6 7 5 5 6 8 11 12 12 11 9 10 11 14 17 18 16 17 17 18 18
4 4 3 4 3 5 3 7 8 7 6 7 9 9 10 5 5 11 16 15 12 9 5 3 3 3 4 5 6 5 4 3 3 5 4 8 9 9 4 5 7 9 10 12 13 13 15 15 17
4 5 4 4 4 4 6 6 7 8 6 10 14 13 11 13 10 8 15 14 12 9 7 5 3 1 1 1 3 5 9 10 10 10 10 8 6 5 5 6 8 9 8 8 9 10 11 13 17
6 6 5 3 2 4 1 6 6 6 8 6 14 15 17 10 7 9 16 17 15 12 9 7 5 5 3 4 5 10 12 11 10 11 11 10 8 5 4 1 2 2 1 3 5 6 8 9 12
5 6 7 4 3 0 3 4 6 4 6 11 10 12 15 14 12 13 16 21 17 15 12 9 8 8 7 6 8 10 13 13 12 10 8 6 6 6 5 4 3 3 4 4 4 6 5 6 6
7 6 5 4 2 6 8 8 5 6 11 5 7 8 8 8 9 10 19 21 19 15 13 12 10 10 8 8 10 10 12 12 10 8 6 5 5 5 5 5 3 3 4 5 4 4 3 3 4
5 8 1 1 4 7 2 8 12 7 9 7 8 8 7 8 12 13 13 18 20 18 15 13 11 11 9 9 10 10 11 11 10 10 8 7 6 6 7 6 6 6 6 6 5 6 7 7 8
11 10 5 8 5 4 2 7 6 10 9 9 10 6 5 7 9 11 14 18 21 19 16 14 12 11 9 8 9 8 8 8 9 7 6 5 4 4 4 4 5 4 5 5 6 7 9 9 10
5 9 5 4 2 2 4 6 8 9 9 5 3 5 8 10 11 11 15 22 24 21 17 15 13 11 10 9 8 8 7 7 6 5 4 3 3 2 3 4 4 4 4 5 5 7 9 9 12
7 8 3 2 2 4 5 5 7 2 10 5 5 8 8 6 8 8 13 22 23 19 17 15 14 13 12 11 10 8 7 6 6 6 5 4 2 2 3 3 3 4 5 6 7 10 12 13 15
5 7 5 5 5 5 2 6 7 13 6 8 7 7 7 8 9 9 13 20 22 20 20 18 17 17 15 13 11 10 9 8 7 6 5 4 4 4 4 5 5 6 7 9 9 13 14 16 16
16 10 15 6 5 4 2 14 3 6 8 4 5 7 8 8 7 8 13 19 23 25 23 23 21 20 18 15 13 11 10 9 8 7 6 6 5 6 7 7 8 8 10 11 13 15 14 15 15